Year,Month,Day,Hour,Minute,Value (Times are PST for temperature in C)
2005,06,06,00,00,8.60
2005,06,06,00,01,8.60
2005,06,06,00,02,8.60
2005,06,06,00,03,8.60
2005,06,06,00,04,8.70
2005,06,06,00,05,8.70
2005,06,06,00,06,8.70
2005,06,06,00,07,8.70
2005,06,06,00,08,8.70
2005,06,06,00,09,8.70
2005,06,06,00,10,8.70
2005,06,06,00,11,8.70
2005,06,06,00,12,8.70
2005,06,06,00,13,8.70
2005,06,06,00,14,8.70
2005,06,06,00,15,8.70
2005,06,06,00,16,8.70
2005,06,06,00,17,8.80
2005,06,06,00,18,8.80
2005,06,06,00,19,8.80
2005,06,06,00,20,8.80
2005,06,06,00,21,8.80
2005,06,06,00,22,8.90
2005,06,06,00,23,8.90
2005,06,06,00,24,8.90
2005,06,06,00,25,8.90
2005,06,06,00,26,8.90
2005,06,06,00,27,8.90
2005,06,06,00,28,9.00
2005,06,06,00,29,9.00
2005,06,06,00,30,9.00
2005,06,06,00,31,9.00
2005,06,06,00,32,8.90
2005,06,06,00,33,8.90
2005,06,06,00,34,8.90
2005,06,06,00,35,8.90
2005,06,06,00,36,8.90
2005,06,06,00,37,8.90
2005,06,06,00,38,8.90
2005,06,06,00,39,8.80
2005,06,06,00,40,8.80
2005,06,06,00,41,8.80
2005,06,06,00,42,8.80
2005,06,06,00,43,8.80
2005,06,06,00,44,8.80
2005,06,06,00,45,8.80
2005,06,06,00,46,8.80
2005,06,06,00,47,8.80
2005,06,06,00,48,8.80
2005,06,06,00,49,8.90
2005,06,06,00,50,8.90
2005,06,06,00,51,8.90
2005,06,06,00,52,8.90
2005,06,06,00,53,8.90
2005,06,06,00,54,8.90
2005,06,06,00,55,9.00
2005,06,06,00,56,9.00
2005,06,06,00,57,9.00
2005,06,06,00,58,9.00
2005,06,06,00,59,9.00
2005,06,06,01,00,9.10
2005,06,06,01,01,9.10
2005,06,06,01,02,9.10
2005,06,06,01,03,9.20
2005,06,06,01,04,9.20
2005,06,06,01,05,9.20
2005,06,06,01,06,9.20
2005,06,06,01,07,9.20
2005,06,06,01,08,9.20
2005,06,06,01,09,9.20
2005,06,06,01,10,9.20
2005,06,06,01,11,9.20
2005,06,06,01,12,9.20
2005,06,06,01,13,9.20
2005,06,06,01,14,9.20
2005,06,06,01,15,9.20
2005,06,06,01,16,9.20
2005,06,06,01,17,9.20
2005,06,06,01,18,9.20
2005,06,06,01,19,9.20
2005,06,06,01,20,9.20
2005,06,06,01,21,9.20
2005,06,06,01,22,9.20
2005,06,06,01,23,9.20
2005,06,06,01,24,9.10
2005,06,06,01,25,9.10
2005,06,06,01,26,9.10
2005,06,06,01,27,9.10
2005,06,06,01,28,9.10
2005,06,06,01,29,9.10
2005,06,06,01,30,9.10
2005,06,06,01,31,9.10
2005,06,06,01,32,9.10
2005,06,06,01,33,9.10
2005,06,06,01,34,9.20
2005,06,06,01,35,9.20
2005,06,06,01,36,9.20
2005,06,06,01,37,9.30
2005,06,06,01,38,9.30
2005,06,06,01,39,9.40
2005,06,06,01,40,9.50
2005,06,06,01,41,9.50
2005,06,06,01,42,9.50
2005,06,06,01,43,9.60
2005,06,06,01,44,9.60
2005,06,06,01,45,9.70
2005,06,06,01,46,9.70
2005,06,06,01,47,9.70
2005,06,06,01,48,9.80
2005,06,06,01,49,9.80
2005,06,06,01,50,9.90
2005,06,06,01,51,9.90
2005,06,06,01,52,9.90
2005,06,06,01,53,9.90
2005,06,06,01,54,9.90
2005,06,06,01,55,10.10
2005,06,06,01,56,10.10
2005,06,06,01,57,10.10
2005,06,06,01,58,10.10
2005,06,06,01,59,10.20
2005,06,06,02,00,10.20
2005,06,06,02,01,10.20
2005,06,06,02,02,10.30
2005,06,06,02,03,10.30
2005,06,06,02,04,10.30
2005,06,06,02,05,10.30
2005,06,06,02,06,10.30
2005,06,06,02,07,10.30
2005,06,06,02,08,10.30
2005,06,06,02,09,10.30
2005,06,06,02,10,10.30
2005,06,06,02,11,10.30
2005,06,06,02,12,10.30
2005,06,06,02,13,10.30
2005,06,06,02,14,10.30
2005,06,06,02,15,10.30
2005,06,06,02,16,10.40
2005,06,06,02,17,10.40
2005,06,06,02,18,10.40
2005,06,06,02,19,10.40
2005,06,06,02,20,10.40
2005,06,06,02,21,10.40
2005,06,06,02,22,10.40
2005,06,06,02,23,10.40
2005,06,06,02,24,10.40
2005,06,06,02,25,10.40
2005,06,06,02,26,10.40
2005,06,06,02,27,10.40
2005,06,06,02,28,10.40
2005,06,06,02,29,10.40
2005,06,06,02,30,10.40
2005,06,06,02,31,10.40
2005,06,06,02,32,10.40
2005,06,06,02,33,10.40
2005,06,06,02,34,10.40
2005,06,06,02,35,10.40
2005,06,06,02,36,10.40
2005,06,06,02,37,10.40
2005,06,06,02,38,10.40
2005,06,06,02,39,10.40
2005,06,06,02,40,10.40
2005,06,06,02,41,10.40
2005,06,06,02,42,10.40
2005,06,06,02,43,10.40
2005,06,06,02,44,10.30
2005,06,06,02,45,10.30
2005,06,06,02,46,10.30
2005,06,06,02,47,10.20
2005,06,06,02,48,10.20
2005,06,06,02,49,10.20
2005,06,06,02,50,10.20
2005,06,06,02,51,10.20
2005,06,06,02,52,10.20
2005,06,06,02,53,10.20
2005,06,06,02,54,10.20
2005,06,06,02,55,10.20
2005,06,06,02,56,10.20
2005,06,06,02,57,10.20
2005,06,06,02,58,10.30
2005,06,06,02,59,10.30
2005,06,06,03,00,10.30
2005,06,06,03,01,10.30
2005,06,06,03,02,10.30
2005,06,06,03,03,10.30
2005,06,06,03,04,10.30
2005,06,06,03,05,10.20
2005,06,06,03,06,10.20
2005,06,06,03,07,10.20
2005,06,06,03,08,10.20
2005,06,06,03,09,10.20
2005,06,06,03,10,10.20
2005,06,06,03,11,10.20
2005,06,06,03,12,10.20
2005,06,06,03,13,10.20
2005,06,06,03,14,10.20
2005,06,06,03,15,10.20
2005,06,06,03,16,10.20
2005,06,06,03,17,10.20
2005,06,06,03,18,10.20
2005,06,06,03,19,10.20
2005,06,06,03,20,10.20
2005,06,06,03,21,10.20
2005,06,06,03,22,10.20
2005,06,06,03,23,10.20
2005,06,06,03,24,10.20
2005,06,06,03,25,10.20
2005,06,06,03,26,10.20
2005,06,06,03,27,10.20
2005,06,06,03,28,10.20
2005,06,06,03,29,10.20
2005,06,06,03,30,10.20
2005,06,06,03,31,10.20
2005,06,06,03,32,10.20
2005,06,06,03,33,10.20
2005,06,06,03,34,10.20
2005,06,06,03,35,10.20
2005,06,06,03,36,10.20
2005,06,06,03,37,10.20
2005,06,06,03,38,10.20
2005,06,06,03,39,10.20
2005,06,06,03,40,10.20
2005,06,06,03,41,10.20
2005,06,06,03,42,10.20
2005,06,06,03,43,10.20
2005,06,06,03,44,10.20
2005,06,06,03,45,10.20
2005,06,06,03,46,10.20
2005,06,06,03,47,10.20
2005,06,06,03,48,10.20
2005,06,06,03,49,10.20
2005,06,06,03,50,10.20
2005,06,06,03,51,10.20
2005,06,06,03,52,10.20
2005,06,06,03,53,10.20
2005,06,06,03,54,10.30
2005,06,06,03,55,10.30
2005,06,06,03,56,10.30
2005,06,06,03,57,10.30
2005,06,06,03,58,10.30
2005,06,06,03,59,10.30
2005,06,06,04,00,10.30
2005,06,06,04,01,10.30
2005,06,06,04,02,10.30
2005,06,06,04,03,10.30
2005,06,06,04,04,10.40
2005,06,06,04,05,10.40
2005,06,06,04,06,10.40
2005,06,06,04,07,10.40
2005,06,06,04,08,10.40
2005,06,06,04,09,10.40
2005,06,06,04,10,10.40
2005,06,06,04,11,10.40
2005,06,06,04,12,10.40
2005,06,06,04,13,10.40
2005,06,06,04,14,10.40
2005,06,06,04,15,10.40
2005,06,06,04,16,10.40
2005,06,06,04,17,10.40
2005,06,06,04,18,10.40
2005,06,06,04,19,10.40
2005,06,06,04,20,10.30
2005,06,06,04,21,10.30
2005,06,06,04,22,10.30
2005,06,06,04,23,10.30
2005,06,06,04,24,10.30
2005,06,06,04,25,10.30
2005,06,06,04,26,10.30
2005,06,06,04,27,10.30
2005,06,06,04,28,10.30
2005,06,06,04,29,10.20
2005,06,06,04,30,10.20
2005,06,06,04,31,10.20
2005,06,06,04,32,10.20
2005,06,06,04,33,10.20
2005,06,06,04,34,10.20
2005,06,06,04,35,10.20
2005,06,06,04,36,10.20
2005,06,06,04,37,10.20
2005,06,06,04,38,10.20
2005,06,06,04,39,10.20
2005,06,06,04,40,10.20
2005,06,06,04,41,10.20
2005,06,06,04,42,10.10
2005,06,06,04,43,10.10
2005,06,06,04,44,10.10
2005,06,06,04,45,10.10
2005,06,06,04,46,10.10
2005,06,06,04,47,10.10
2005,06,06,04,48,10.10
2005,06,06,04,49,10.10
2005,06,06,04,50,10.10
2005,06,06,04,51,10.10
2005,06,06,04,52,10.10
2005,06,06,04,53,10.10
2005,06,06,04,54,10.10
2005,06,06,04,55,10.10
2005,06,06,04,56,10.10
2005,06,06,04,57,10.10
2005,06,06,04,58,10.10
2005,06,06,04,59,10.10
2005,06,06,05,00,10.10
2005,06,06,05,01,10.10
2005,06,06,05,02,10.10
2005,06,06,05,03,10.10
2005,06,06,05,04,10.10
2005,06,06,05,05,10.00
2005,06,06,05,06,9.90
2005,06,06,05,07,9.90
2005,06,06,05,08,9.90
2005,06,06,05,09,9.90
2005,06,06,05,10,9.90
2005,06,06,05,11,9.90
2005,06,06,05,12,9.90
2005,06,06,05,13,9.90
2005,06,06,05,14,9.90
2005,06,06,05,15,9.90
2005,06,06,05,16,9.90
2005,06,06,05,17,9.90
2005,06,06,05,18,9.90
2005,06,06,05,19,9.90
2005,06,06,05,20,9.90
2005,06,06,05,21,9.90
2005,06,06,05,22,9.90
2005,06,06,05,23,9.90
2005,06,06,05,24,9.90
2005,06,06,05,25,9.90
2005,06,06,05,26,9.90
2005,06,06,05,27,9.90
2005,06,06,05,28,9.90
2005,06,06,05,29,9.90
2005,06,06,05,30,9.90
2005,06,06,05,31,9.90
2005,06,06,05,32,9.90
2005,06,06,05,33,9.90
2005,06,06,05,34,9.90
2005,06,06,05,35,9.90
2005,06,06,05,36,9.90
2005,06,06,05,37,9.90
2005,06,06,05,38,9.90
2005,06,06,05,39,9.90
2005,06,06,05,40,9.90
2005,06,06,05,41,9.90
2005,06,06,05,42,9.90
2005,06,06,05,43,9.90
2005,06,06,05,44,9.90
2005,06,06,05,45,9.90
2005,06,06,05,46,9.90
2005,06,06,05,47,9.90
2005,06,06,05,48,10.00
2005,06,06,05,49,10.10
2005,06,06,05,50,10.10
2005,06,06,05,51,10.10
2005,06,06,05,52,10.10
2005,06,06,05,53,10.10
2005,06,06,05,54,10.10
2005,06,06,05,55,10.10
2005,06,06,05,56,10.10
2005,06,06,05,57,10.10
2005,06,06,05,58,10.10
2005,06,06,05,59,10.10
2005,06,06,06,00,10.20
2005,06,06,06,01,10.20
2005,06,06,06,02,10.20
2005,06,06,06,03,10.20
2005,06,06,06,04,10.20
2005,06,06,06,05,10.20
2005,06,06,06,06,10.20
2005,06,06,06,07,10.20
2005,06,06,06,08,10.30
2005,06,06,06,09,10.30
2005,06,06,06,10,10.30
2005,06,06,06,11,10.30
2005,06,06,06,12,10.40
2005,06,06,06,13,10.40
2005,06,06,06,14,10.40
2005,06,06,06,15,10.40
2005,06,06,06,16,10.40
2005,06,06,06,17,10.40
2005,06,06,06,18,10.40
2005,06,06,06,19,10.40
2005,06,06,06,20,10.40
2005,06,06,06,21,10.50
2005,06,06,06,22,10.60
2005,06,06,06,23,10.60
2005,06,06,06,24,10.60
2005,06,06,06,25,10.60
2005,06,06,06,26,10.60
2005,06,06,06,27,10.60
2005,06,06,06,28,10.60
2005,06,06,06,29,10.60
2005,06,06,06,30,10.60
2005,06,06,06,31,10.60
2005,06,06,06,32,10.60
2005,06,06,06,33,10.60
2005,06,06,06,34,10.60
2005,06,06,06,35,10.60
2005,06,06,06,36,10.60
2005,06,06,06,37,10.60
2005,06,06,06,38,10.60
2005,06,06,06,39,10.60
2005,06,06,06,40,10.60
2005,06,06,06,41,10.60
2005,06,06,06,42,10.60
2005,06,06,06,43,10.70
2005,06,06,06,44,10.70
2005,06,06,06,45,10.70
2005,06,06,06,46,10.70
2005,06,06,06,47,10.70
2005,06,06,06,48,10.70
2005,06,06,06,49,10.70
2005,06,06,06,50,10.70
2005,06,06,06,51,10.70
2005,06,06,06,52,10.70
2005,06,06,06,53,10.70
2005,06,06,06,54,10.60
2005,06,06,06,55,10.60
2005,06,06,06,56,10.60
2005,06,06,06,57,10.70
2005,06,06,06,58,10.70
2005,06,06,06,59,10.70
2005,06,06,07,00,10.70
2005,06,06,07,01,10.70
2005,06,06,07,02,10.70
2005,06,06,07,03,10.70
2005,06,06,07,04,10.70
2005,06,06,07,05,10.70
2005,06,06,07,06,10.80
2005,06,06,07,07,10.80
2005,06,06,07,08,10.80
2005,06,06,07,09,10.80
2005,06,06,07,10,10.80
2005,06,06,07,11,10.90
2005,06,06,07,12,10.90
2005,06,06,07,13,10.90
2005,06,06,07,14,10.90
2005,06,06,07,15,10.90
2005,06,06,07,16,10.90
2005,06,06,07,17,10.90
2005,06,06,07,18,10.90
2005,06,06,07,19,10.90
2005,06,06,07,20,10.90
2005,06,06,07,21,10.90
2005,06,06,07,22,10.90
2005,06,06,07,23,10.90
2005,06,06,07,24,10.90
2005,06,06,07,25,10.90
2005,06,06,07,26,10.90
2005,06,06,07,27,10.90
2005,06,06,07,28,10.90
2005,06,06,07,29,11.00
2005,06,06,07,30,11.10
2005,06,06,07,31,11.10
2005,06,06,07,32,11.10
2005,06,06,07,33,11.10
2005,06,06,07,34,11.10
2005,06,06,07,35,11.10
2005,06,06,07,36,11.10
2005,06,06,07,37,11.10
2005,06,06,07,38,11.10
2005,06,06,07,39,11.10
2005,06,06,07,40,11.10
2005,06,06,07,41,11.20
2005,06,06,07,42,11.20
2005,06,06,07,43,11.20
2005,06,06,07,44,11.30
2005,06,06,07,45,11.30
2005,06,06,07,46,11.40
2005,06,06,07,47,11.40
2005,06,06,07,48,11.50
2005,06,06,07,49,11.70
2005,06,06,07,50,11.80
2005,06,06,07,51,11.80
2005,06,06,07,52,11.90
2005,06,06,07,53,12.00
2005,06,06,07,54,12.00
2005,06,06,07,55,11.90
2005,06,06,07,56,11.90
2005,06,06,07,57,11.80
2005,06,06,07,58,11.80
2005,06,06,07,59,11.80
2005,06,06,08,00,11.80
2005,06,06,08,01,11.80
2005,06,06,08,02,11.80
2005,06,06,08,03,11.80
2005,06,06,08,04,11.80
2005,06,06,08,05,11.90
2005,06,06,08,06,12.00
2005,06,06,08,07,12.00
2005,06,06,08,08,12.00
2005,06,06,08,09,12.00
2005,06,06,08,10,12.10
2005,06,06,08,11,12.20
2005,06,06,08,12,12.30
2005,06,06,08,13,12.30
2005,06,06,08,14,12.30
2005,06,06,08,15,12.50
2005,06,06,08,16,12.50
2005,06,06,08,17,12.60
2005,06,06,08,18,12.70
2005,06,06,08,19,12.70
2005,06,06,08,20,12.80
2005,06,06,08,21,12.70
2005,06,06,08,22,12.70
2005,06,06,08,23,12.50
2005,06,06,08,24,12.40
2005,06,06,08,25,12.20
2005,06,06,08,26,12.10
2005,06,06,08,27,12.10
2005,06,06,08,28,12.00
2005,06,06,08,29,12.00
2005,06,06,08,30,11.90
2005,06,06,08,31,11.80
2005,06,06,08,32,11.90
2005,06,06,08,33,12.00
2005,06,06,08,34,12.10
2005,06,06,08,35,12.10
2005,06,06,08,36,12.10
2005,06,06,08,37,12.00
2005,06,06,08,38,11.90
2005,06,06,08,39,11.90
2005,06,06,08,40,11.90
2005,06,06,08,41,12.00
2005,06,06,08,42,12.00
2005,06,06,08,43,12.10
2005,06,06,08,44,12.10
2005,06,06,08,45,12.10
2005,06,06,08,46,12.10
2005,06,06,08,47,12.00
2005,06,06,08,48,11.90
2005,06,06,08,49,11.90
2005,06,06,08,50,11.90
2005,06,06,08,51,12.00
2005,06,06,08,52,12.10
2005,06,06,08,53,12.10
2005,06,06,08,54,12.10
2005,06,06,08,55,12.20
2005,06,06,08,56,12.20
2005,06,06,08,57,12.20
2005,06,06,08,58,12.20
2005,06,06,08,59,12.20
2005,06,06,09,00,12.20
2005,06,06,09,01,12.20
2005,06,06,09,02,12.20
2005,06,06,09,03,12.20
2005,06,06,09,04,12.30
2005,06,06,09,05,12.30
2005,06,06,09,06,12.30
2005,06,06,09,07,12.40
2005,06,06,09,08,12.50
2005,06,06,09,09,12.50
2005,06,06,09,10,12.60
2005,06,06,09,11,12.60
2005,06,06,09,12,12.60
2005,06,06,09,13,12.60
2005,06,06,09,14,12.60
2005,06,06,09,15,12.70
2005,06,06,09,16,12.70
2005,06,06,09,17,12.80
2005,06,06,09,18,12.80
2005,06,06,09,19,12.90
2005,06,06,09,20,13.00
2005,06,06,09,21,13.10
2005,06,06,09,22,13.20
2005,06,06,09,23,13.30
2005,06,06,09,24,13.30
2005,06,06,09,25,13.30
2005,06,06,09,26,13.30
2005,06,06,09,27,13.30
2005,06,06,09,28,13.30
2005,06,06,09,29,13.30
2005,06,06,09,30,13.30
2005,06,06,09,31,13.30
2005,06,06,09,32,13.30
2005,06,06,09,33,13.30
2005,06,06,09,34,13.30
2005,06,06,09,35,13.30
2005,06,06,09,36,13.20
2005,06,06,09,37,13.10
2005,06,06,09,38,13.00
2005,06,06,09,39,13.00
2005,06,06,09,40,13.00
2005,06,06,09,41,13.00
2005,06,06,09,42,13.00
2005,06,06,09,43,13.00
2005,06,06,09,44,13.00
2005,06,06,09,45,13.00
2005,06,06,09,46,12.90
2005,06,06,09,47,12.80
2005,06,06,09,48,12.80
2005,06,06,09,49,12.70
2005,06,06,09,50,12.70
2005,06,06,09,51,12.70
2005,06,06,09,52,12.60
2005,06,06,09,53,12.60
2005,06,06,09,54,12.60
2005,06,06,09,55,12.60
2005,06,06,09,56,12.60
2005,06,06,09,57,12.60
2005,06,06,09,58,12.70
2005,06,06,09,59,12.70
2005,06,06,10,00,12.80
2005,06,06,10,01,12.80
2005,06,06,10,02,12.90
2005,06,06,10,03,13.00
2005,06,06,10,04,13.00
2005,06,06,10,05,13.10
2005,06,06,10,06,13.10
2005,06,06,10,07,13.10
2005,06,06,10,08,13.20
2005,06,06,10,09,13.30
2005,06,06,10,10,13.30
2005,06,06,10,11,13.30
2005,06,06,10,12,13.30
2005,06,06,10,13,13.30
2005,06,06,10,14,13.30
2005,06,06,10,15,13.30
2005,06,06,10,16,13.20
2005,06,06,10,17,13.10
2005,06,06,10,18,13.00
2005,06,06,10,19,13.00
2005,06,06,10,20,13.00
2005,06,06,10,21,13.10
2005,06,06,10,22,13.10
2005,06,06,10,23,13.10
2005,06,06,10,24,13.10
2005,06,06,10,25,13.30
2005,06,06,10,26,13.30
2005,06,06,10,27,13.30
2005,06,06,10,28,13.40
2005,06,06,10,29,13.40
2005,06,06,10,30,13.40
2005,06,06,10,31,13.40
2005,06,06,10,32,13.50
2005,06,06,10,33,13.50
2005,06,06,10,34,13.50
2005,06,06,10,35,13.40
2005,06,06,10,36,13.40
2005,06,06,10,37,13.40
2005,06,06,10,38,13.40
2005,06,06,10,39,13.50
2005,06,06,10,40,13.50
2005,06,06,10,41,13.50
2005,06,06,10,42,13.50
2005,06,06,10,43,13.50
2005,06,06,10,44,13.40
2005,06,06,10,45,13.40
2005,06,06,10,46,13.40
2005,06,06,10,47,13.30
2005,06,06,10,48,13.40
2005,06,06,10,49,13.40
2005,06,06,10,50,13.50
2005,06,06,10,51,13.50
2005,06,06,10,52,13.40
2005,06,06,10,53,13.40
2005,06,06,10,54,13.50
2005,06,06,10,55,13.50
2005,06,06,10,56,13.60
2005,06,06,10,57,13.60
2005,06,06,10,58,13.60
2005,06,06,10,59,13.70
2005,06,06,11,00,13.60
2005,06,06,11,01,13.60
2005,06,06,11,02,13.50
2005,06,06,11,03,13.60
2005,06,06,11,04,13.70
2005,06,06,11,05,13.80
2005,06,06,11,06,14.00
2005,06,06,11,07,14.00
2005,06,06,11,08,14.10
2005,06,06,11,09,14.10
2005,06,06,11,10,14.10
2005,06,06,11,11,14.20
2005,06,06,11,12,14.10
2005,06,06,11,13,14.10
2005,06,06,11,14,14.10
2005,06,06,11,15,14.10
2005,06,06,11,16,14.20
2005,06,06,11,17,14.20
2005,06,06,11,18,14.20
2005,06,06,11,19,14.20
2005,06,06,11,20,14.20
2005,06,06,11,21,14.20
2005,06,06,11,22,14.30
2005,06,06,11,23,14.40
2005,06,06,11,24,14.50
2005,06,06,11,25,14.50
2005,06,06,11,26,14.60
2005,06,06,11,27,14.60
2005,06,06,11,28,14.60
2005,06,06,11,29,14.60
2005,06,06,11,30,14.50
2005,06,06,11,31,14.40
2005,06,06,11,32,14.40
2005,06,06,11,33,14.40
2005,06,06,11,34,14.40
2005,06,06,11,35,14.30
2005,06,06,11,36,14.30
2005,06,06,11,37,14.30
2005,06,06,11,38,14.30
2005,06,06,11,39,14.40
2005,06,06,11,40,14.50
2005,06,06,11,41,14.60
2005,06,06,11,42,14.70
2005,06,06,11,43,14.80
2005,06,06,11,44,14.90
2005,06,06,11,45,15.00
2005,06,06,11,46,15.00
2005,06,06,11,47,15.10
2005,06,06,11,48,15.20
2005,06,06,11,49,15.20
2005,06,06,11,50,15.30
2005,06,06,11,51,15.30
2005,06,06,11,52,15.30
2005,06,06,11,53,15.40
2005,06,06,11,54,15.50
2005,06,06,11,55,15.50
2005,06,06,11,56,15.40
2005,06,06,11,57,15.30
2005,06,06,11,58,15.30
2005,06,06,11,59,15.30
2005,06,06,12,00,15.00
2005,06,06,12,01,14.90
2005,06,06,12,02,14.90
2005,06,06,12,03,14.80
2005,06,06,12,04,14.80
2005,06,06,12,05,14.70
2005,06,06,12,06,14.60
2005,06,06,12,07,14.60
2005,06,06,12,08,14.50
2005,06,06,12,09,14.60
2005,06,06,12,10,14.50
2005,06,06,12,11,14.50
2005,06,06,12,12,14.40
2005,06,06,12,13,14.50
2005,06,06,12,14,14.50
2005,06,06,12,15,14.60
2005,06,06,12,16,14.80
2005,06,06,12,17,14.80
2005,06,06,12,18,14.80
2005,06,06,12,19,14.80
2005,06,06,12,20,14.80
2005,06,06,12,21,14.80
2005,06,06,12,22,14.80
2005,06,06,12,23,14.90
2005,06,06,12,24,15.00
2005,06,06,12,25,15.00
2005,06,06,12,26,15.10
2005,06,06,12,27,15.10
2005,06,06,12,28,15.00
2005,06,06,12,29,14.90
2005,06,06,12,30,14.90
2005,06,06,12,31,15.00
2005,06,06,12,32,15.10
2005,06,06,12,33,15.20
2005,06,06,12,34,15.20
2005,06,06,12,35,15.30
2005,06,06,12,36,15.30
2005,06,06,12,37,15.30
2005,06,06,12,38,15.30
2005,06,06,12,39,15.30
2005,06,06,12,40,15.30
2005,06,06,12,41,15.30
2005,06,06,12,42,15.30
2005,06,06,12,43,15.50
2005,06,06,12,44,15.60
2005,06,06,12,45,15.70
2005,06,06,12,46,15.80
2005,06,06,12,47,15.80
2005,06,06,12,48,16.10
2005,06,06,12,49,16.20
2005,06,06,12,50,16.30
2005,06,06,12,51,16.40
2005,06,06,12,52,16.50
2005,06,06,12,53,16.60
2005,06,06,12,54,16.60
2005,06,06,12,55,16.60
2005,06,06,12,56,16.60
2005,06,06,12,57,16.60
2005,06,06,12,58,16.50
2005,06,06,12,59,16.40
2005,06,06,13,00,16.30
2005,06,06,13,01,16.30
2005,06,06,13,02,16.40
2005,06,06,13,03,16.50
2005,06,06,13,04,16.70
2005,06,06,13,05,16.60
2005,06,06,13,06,16.60
2005,06,06,13,07,16.60
2005,06,06,13,08,16.70
2005,06,06,13,09,16.70
2005,06,06,13,10,16.70
2005,06,06,13,11,16.70
2005,06,06,13,12,16.70
2005,06,06,13,13,16.70
2005,06,06,13,14,16.60
2005,06,06,13,15,16.50
2005,06,06,13,16,16.40
2005,06,06,13,17,16.40
2005,06,06,13,18,16.40
2005,06,06,13,19,16.60
2005,06,06,13,20,16.70
2005,06,06,13,21,16.90
2005,06,06,13,22,17.00
2005,06,06,13,23,17.20
2005,06,06,13,24,17.20
2005,06,06,13,25,17.20
2005,06,06,13,26,17.20
2005,06,06,13,27,17.10
2005,06,06,13,28,17.00
2005,06,06,13,29,17.10
2005,06,06,13,30,17.20
2005,06,06,13,31,17.30
2005,06,06,13,32,17.30
2005,06,06,13,33,17.40
2005,06,06,13,34,17.40
2005,06,06,13,35,17.40
2005,06,06,13,36,17.40
2005,06,06,13,37,17.50
2005,06,06,13,38,17.40
2005,06,06,13,39,17.40
2005,06,06,13,40,17.40
2005,06,06,13,41,17.30
2005,06,06,13,42,17.10
2005,06,06,13,43,16.90
2005,06,06,13,44,16.70
2005,06,06,13,45,16.60
2005,06,06,13,46,16.40
2005,06,06,13,47,16.30
2005,06,06,13,48,16.30
2005,06,06,13,49,16.40
2005,06,06,13,50,16.40
2005,06,06,13,51,16.60
2005,06,06,13,52,16.70
2005,06,06,13,53,16.90
2005,06,06,13,54,16.90
2005,06,06,13,55,17.00
2005,06,06,13,56,17.00
2005,06,06,13,57,16.90
2005,06,06,13,58,16.90
2005,06,06,13,59,16.90
2005,06,06,14,00,16.90
2005,06,06,14,01,17.00
2005,06,06,14,02,17.00
2005,06,06,14,03,17.10
2005,06,06,14,04,17.10
2005,06,06,14,05,17.00
2005,06,06,14,06,16.90
2005,06,06,14,07,16.90
2005,06,06,14,08,16.90
2005,06,06,14,09,16.90
2005,06,06,14,10,16.90
2005,06,06,14,11,16.80
2005,06,06,14,12,16.80
2005,06,06,14,13,16.80
2005,06,06,14,14,16.70
2005,06,06,14,15,16.70
2005,06,06,14,16,16.70
2005,06,06,14,17,16.60
2005,06,06,14,18,16.60
2005,06,06,14,19,16.40
2005,06,06,14,20,16.60
2005,06,06,14,21,16.70
2005,06,06,14,22,16.90
2005,06,06,14,23,16.90
2005,06,06,14,24,16.90
2005,06,06,14,25,17.00
2005,06,06,14,26,17.00
2005,06,06,14,27,17.10
2005,06,06,14,28,17.30
2005,06,06,14,29,17.30
2005,06,06,14,30,17.30
2005,06,06,14,31,17.30
2005,06,06,14,32,17.50
2005,06,06,14,33,17.60
2005,06,06,14,34,17.80
2005,06,06,14,35,17.90
2005,06,06,14,36,18.00
2005,06,06,14,37,18.10
2005,06,06,14,38,18.10
2005,06,06,14,39,18.10
2005,06,06,14,40,18.10
2005,06,06,14,41,18.10
2005,06,06,14,42,18.20
2005,06,06,14,43,18.30
2005,06,06,14,44,18.20
2005,06,06,14,45,18.20
2005,06,06,14,46,18.30
2005,06,06,14,47,18.20
2005,06,06,14,48,18.20
2005,06,06,14,49,18.30
2005,06,06,14,50,18.30
2005,06,06,14,51,18.40
2005,06,06,14,52,18.30
2005,06,06,14,53,18.20
2005,06,06,14,54,18.00
2005,06,06,14,55,17.90
2005,06,06,14,56,17.90
2005,06,06,14,57,18.00
2005,06,06,14,58,18.10
2005,06,06,14,59,18.10
2005,06,06,15,00,18.20
2005,06,06,15,01,18.30
2005,06,06,15,02,18.40
2005,06,06,15,03,18.50
2005,06,06,15,04,18.60
2005,06,06,15,05,18.70
2005,06,06,15,06,18.70
2005,06,06,15,07,18.60
2005,06,06,15,08,18.60
2005,06,06,15,09,18.50
2005,06,06,15,10,18.40
2005,06,06,15,11,18.20
2005,06,06,15,12,18.10
2005,06,06,15,13,17.90
2005,06,06,15,14,17.80
2005,06,06,15,15,17.60
2005,06,06,15,16,17.60
2005,06,06,15,17,17.60
2005,06,06,15,18,17.70
2005,06,06,15,19,17.70
2005,06,06,15,20,17.70
2005,06,06,15,21,17.80
2005,06,06,15,22,17.90
2005,06,06,15,23,17.90
2005,06,06,15,24,18.00
2005,06,06,15,25,18.10
2005,06,06,15,26,18.00
2005,06,06,15,27,18.00
2005,06,06,15,28,18.00
2005,06,06,15,29,17.90
2005,06,06,15,30,17.90
2005,06,06,15,31,17.90
2005,06,06,15,32,17.90
2005,06,06,15,33,17.90
2005,06,06,15,34,17.90
2005,06,06,15,35,17.90
2005,06,06,15,36,17.90
2005,06,06,15,37,17.90
2005,06,06,15,38,18.00
2005,06,06,15,39,17.90
2005,06,06,15,40,17.90
2005,06,06,15,41,17.90
2005,06,06,15,42,17.90
2005,06,06,15,43,18.00
2005,06,06,15,44,18.10
2005,06,06,15,45,18.20
2005,06,06,15,46,18.30
2005,06,06,15,47,18.30
2005,06,06,15,48,18.40
2005,06,06,15,49,18.40
2005,06,06,15,50,18.30
2005,06,06,15,51,18.20
2005,06,06,15,52,18.20
2005,06,06,15,53,18.10
2005,06,06,15,54,18.10
2005,06,06,15,55,18.10
2005,06,06,15,56,18.20
2005,06,06,15,57,18.20
2005,06,06,15,58,18.30
2005,06,06,15,59,18.30
2005,06,06,16,00,18.20
2005,06,06,16,01,18.20
2005,06,06,16,02,18.20
2005,06,06,16,03,18.20
2005,06,06,16,04,18.30
2005,06,06,16,05,18.30
2005,06,06,16,06,18.30
2005,06,06,16,07,18.20
2005,06,06,16,08,18.20
2005,06,06,16,09,18.20
2005,06,06,16,10,18.20
2005,06,06,16,11,18.30
2005,06,06,16,12,18.40
2005,06,06,16,13,18.60
2005,06,06,16,14,18.80
2005,06,06,16,15,18.90
2005,06,06,16,16,18.90
2005,06,06,16,17,18.90
2005,06,06,16,18,18.70
2005,06,06,16,19,18.70
2005,06,06,16,20,18.70
2005,06,06,16,21,18.70
2005,06,06,16,22,18.60
2005,06,06,16,23,18.60
2005,06,06,16,24,18.50
2005,06,06,16,25,18.30
2005,06,06,16,26,18.20
2005,06,06,16,27,18.20
2005,06,06,16,28,18.00
2005,06,06,16,29,17.90
2005,06,06,16,30,17.80
2005,06,06,16,31,17.80
2005,06,06,16,32,17.60
2005,06,06,16,33,17.60
2005,06,06,16,34,17.70
2005,06,06,16,35,17.70
2005,06,06,16,36,17.80
2005,06,06,16,37,17.80
2005,06,06,16,38,17.70
2005,06,06,16,39,17.50
2005,06,06,16,40,17.40
2005,06,06,16,41,17.30
2005,06,06,16,42,17.40
2005,06,06,16,43,17.40
2005,06,06,16,44,17.40
2005,06,06,16,45,17.20
2005,06,06,16,46,17.10
2005,06,06,16,47,17.10
2005,06,06,16,48,17.10
2005,06,06,16,49,17.10
2005,06,06,16,50,16.90
2005,06,06,16,51,16.70
2005,06,06,16,52,16.70
2005,06,06,16,53,16.70
2005,06,06,16,54,16.80
2005,06,06,16,55,16.90
2005,06,06,16,56,17.00
2005,06,06,16,57,17.00
2005,06,06,16,58,16.90
2005,06,06,16,59,16.90
2005,06,06,17,00,16.90
2005,06,06,17,01,17.00
2005,06,06,17,02,17.10
2005,06,06,17,03,17.20
2005,06,06,17,04,17.30
2005,06,06,17,05,17.30
2005,06,06,17,06,17.20
2005,06,06,17,07,17.20
2005,06,06,17,08,17.10
2005,06,06,17,09,17.10
2005,06,06,17,10,17.00
2005,06,06,17,11,17.10
2005,06,06,17,12,17.10
2005,06,06,17,13,17.20
2005,06,06,17,14,17.20
2005,06,06,17,15,17.20
2005,06,06,17,16,17.30
2005,06,06,17,17,17.30
2005,06,06,17,18,17.50
2005,06,06,17,19,17.60
2005,06,06,17,20,17.60
2005,06,06,17,21,17.70
2005,06,06,17,22,17.60
2005,06,06,17,23,17.40
2005,06,06,17,24,17.30
2005,06,06,17,25,17.30
2005,06,06,17,26,17.20